Regional Weather Roundup
Issued by NWS

Home | Current Version | Previous Version | Graphics & Text | Print | Product List | Glossary Off
Versions: 1 2 3 4 5 6 7 8 9 10 11 12 13 14 15 16 17 18 19 20 21 22 23 24 25 26 27 28 29 30 31 32 33 34 35 36 37 38 39 40 41 42 43 44 45 46 47 48 49 50

000
ASUS43 KDMX 141603
RWRIA

WEATHER ROUNDUP FOR IOWA
NATIONAL WEATHER SERVICE DES MOINES IA
1000 AM CST SUN FEB 14 2016

NOTE: "FAIR" INDICATES FEW OR NO CLOUDS BELOW 12,000 FEET WITH NO
SIGNIFICANT WEATHER AND/OR OBSTRUCTIONS TO VISIBILITY.

* - THESE STATIONS ARE NOT NWS STATIONS...THUS NOT UNDER NWS
QUALITY CONTROL.  THEY ALSO DO NOT REPORT WEATHER SUCH
AS PRECIPITATION OR FOG.

IAZ001>003-012>014-020>022-031>034-043>046-141700-
   NORTHWEST IOWA

CITY           SKY/WX    TMP DP  RH WIND       PRES   REMARKS
CARROLL *      CLOUDY    18  16  93 SE14      29.91F FOG     WCI   4
CHEROKEE *     CLOUDY    18  16  93 SE13      29.89F WCI   4
DENISON *      CLOUDY    19  16  86 S13G18    29.87S WCI   7
LE MARS *      CLOUDY    19  18  93 SE9G16    29.88F WCI   9
ORANGE CITY *  CLOUDY    18  16  93 S9        29.86S WCI   6
SHELDON *      CLOUDY    16  12  86 SE16      29.86S WCI   0
SIOUX CITY     CLOUDY    21  14  74 SE9       29.88S WCI  11
SPENCER        CLOUDY    16  10  77 SE18      29.89F HAZE    WCI   0
STORM LAKE *   CLOUDY    16  16 100 SE17      29.88F WCI   0
$$

IAZ055>058-069>071-079>083-090>094-141700-
   SOUTHWEST IOWA

CITY           SKY/WX    TMP DP  RH WIND       PRES   REMARKS
ATLANTIC *     CLOUDY    21  14  73 S10       29.90F WCI  10
AUDUBON *      CLOUDY    19  16  86 SE10      29.89F WCI   8
CLARINDA *     CLOUDY    27  14  59 S13       29.93F WCI  16
COUNCIL BLFS * CLOUDY    25  12  58 S12       29.87F WCI  14
CRESTON *      CLOUDY    19  14  79 SE14      29.92F WCI   6
HARLAN  *      CLOUDY    21  16  79 S12       29.92F WCI   9
LAMONI         CLOUDY    21  16  81 S7        29.94F WCI  12
SHENANDOAH *   CLOUDY    28  10  47 SW17      29.92F WCI  16
$$

IAZ047>049-059>061-072>074-084-141700-
   CENTRAL IOWA

CITY           SKY/WX    TMP DP  RH WIND       PRES   REMARKS
AMES           LGT SNOW  18  13  80 SE17      29.98F WCI   3
ANKENY *       PTSUNNY   18  14  86 SE14G21   29.98F FOG     WCI   4
BOONE *        CLOUDY    18  14  86 SE20      29.94F FOG     WCI   1
CHARITON *     CLOUDY    19  16  86 SE14      29.97F WCI   6
DES MOINES     LGT SNOW  20  13  74 SE15      29.97F WCI   6
GRINNELL*      LGT SNOW  18  14  86 SE16      30.02F WCI   3
KNOXVILLE *    LGT SNOW  19  14  79 SE12      29.99F WCI   7
MARSHALLTOWN   LGT SNOW  17  13  84 SE18      30.01F FOG     WCI   1
NEWTON *       LGT SNOW  18  16  93 SE16G23   30.01S WCI   3
PELLA *        LGT SNOW  19  16  86 SE12      30.03F VSB 3/4 WCI   7
$$

IAZ004>006-015-016-023>025-035-036-141700-
   NORTH CENTRAL IOWA

CITY           SKY/WX    TMP DP  RH WIND       PRES   REMARKS
ALGONA *       CLOUDY    16  14  93 SE17G25   29.93F FOG     WCI   0
CLARION *      FOG       16  12  86 SE21      29.96F VSB 1   WCI  -2
ESTHERVILLE    LGT SNOW  14  12  92 SE21      29.90F FOG     WCI  -4
FORT DODGE *   CLOUDY    18  10  73 SE9G16    29.95F WCI   6
MASON CITY     SNOW      15  12  88 SE21      29.99F VSB 1/2 WCI  -2
FOREST CITY *  LGT SNOW  18  14  86 SE15      29.97F WCI   3
WEBSTER CITY * CLOUDY    18  14  86 SE20      29.94F FOG     WCI   1
IOWA FALLS *   LGT SNOW  18  14  86 SE16      30.00F WCI   3
$$

IAZ007>011-017>019-026>030-037>042-050>054-066-141700-
   NORTHEAST IOWA

CITY           SKY/WX    TMP DP  RH WIND       PRES   REMARKS
CEDAR RAPIDS   LGT SNOW  17  14  88 SE15      30.07F VSB 1   WCI   2
CHARLES CITY * LGT SNOW  16  14  93 SE21      30.03F WCI  -2
CLINTON *      LGT SNOW  16  13  88 SE18      30.16F VSB 3/4 WCI   0
DECORAH *      LGT SNOW  12  10  92 SE13G22   30.06  WCI  -3
DUBUQUE        SNOW      13  10  88 SE18G25   30.12F VSB 1/4 WCI  -4
MONTICELLO *   SNOW      16  12  86 SE18      30.11F VSB 1/4 WCI  -1
OELWEIN *      SNOW      16  12  86 SE21G28   30.06F VSB 1/2 WCI  -2
WATERLOO       SNOW      16  13  88 SE14      30.05F VSB 1/2 WCI   2
$$

IAZ064-065-067-068-078-141700-
   EAST CENTRAL IOWA

CITY           SKY/WX    TMP DP  RH WIND       PRES   REMARKS
DAVENPORT      LGT SNOW  16  12  84 SE16      30.13F VSB 3/4 WCI   1
IOWA CITY      LGT SNOW  17  13  84 SE16G24   30.11F VSB 1   WCI   2
MT. PLEASANT * CLOUDY    21  16  79 SE13      30.09S WCI   9
MUSCATINE *    PTSUNNY   18  14  86 SE14G22   30.13F HAZE    WCI   4
QUAD CITIES    SNOW      17  13  84 E12       30.15F VSB 1/2 WCI   4
$$

IAZ062-063-075>077-085>089-095>099-141700-
   SOUTHEAST IOWA

CITY           SKY/WX    TMP DP  RH WIND       PRES   REMARKS
BURLINGTON     LGT SNOW  17  15  92 SE12      30.10F VSB 1   WCI   4
FAIRFIELD *    FLURRIES  19  14  79 SE16G24   30.06S WCI   5
FORT MADISON * LGT SNOW  18  16  93 SE15      30.10F WCI   3
KEOKUK *       LGT SNOW  19  18  93 SE12      30.08F WCI   7
OSKALOOSA *    LGT SNOW  18  16  93 SE17      30.04F WCI   2
OTTUMWA        LGT SNOW  19  16  88 SE10      30.03F VSB 3/4 WCI   7
WASHINGTON *   CLOUDY    18  14  86 SE15G24   30.09F WCI   3
$$

ABBREVIATIONS USED IN REMARKS
   TC - TEMPERATURES IN CELSIUS
  WCI - WIND CHILL INDEX
   HX - HEAT INDEX
  VSB - VISIBILITY
$$




USA.gov is the U.S. government's official web portal to all federal, state and local government web resources and services.